CEB821 RPLL-RPUV

Flight info

Callsign CEB821
Flight time N/A
Altitude 27000
Route HARBO1/31 TIMON W15 RAGAY W15A NGA
Aircraft A320/M-SDE3FGHIRWY/LB1

Departure

Time N/A
Airport Ninoy Aquino International Airport (RPLL)

Arrival

Time 2026-05-08 02:56
Airport Virac Airport (RPUV)
Time Latitude Longitude Altitude Speed Heading
2026-05-08 02:44 13.57700 123.36189 12060 ft 319 kts 92°
2026-05-08 02:44 13.57567 123.38470 11676 ft 317 kts 92°
2026-05-08 02:44 13.57435 123.40727 11293 ft 315 kts 92°
2026-05-08 02:44 13.57304 123.42981 10857 ft 315 kts 91°
2026-05-08 02:45 13.57174 123.45229 10524 ft 311 kts 91°
2026-05-08 02:45 13.57046 123.47439 10304 ft 308 kts 91°
2026-05-08 02:45 13.56920 123.49623 10158 ft 308 kts 91°
2026-05-08 02:45 13.56792 123.51839 10079 ft 307 kts 91°
2026-05-08 02:46 13.56663 123.54051 10024 ft 306 kts 91°
2026-05-08 02:46 13.56537 123.56234 9943 ft 304 kts 91°
2026-05-08 02:46 13.56410 123.58408 9599 ft 302 kts 91°
2026-05-08 02:46 13.56283 123.60577 9175 ft 302 kts 91°
2026-05-08 02:47 13.56156 123.62730 8816 ft 299 kts 91°
2026-05-08 02:47 13.56033 123.64841 8406 ft 299 kts 91°
2026-05-08 02:47 13.55931 123.66571 8140 ft 295 kts 91°
2026-05-08 02:47 13.55789 123.69001 7696 ft 294 kts 91°
2026-05-08 02:48 13.55664 123.71103 7389 ft 289 kts 91°
2026-05-08 02:48 13.55544 123.73157 7027 ft 287 kts 91°
2026-05-08 02:48 13.55423 123.75217 6670 ft 285 kts 91°
2026-05-08 02:48 13.55304 123.77232 6321 ft 282 kts 91°
2026-05-08 02:49 13.55190 123.79160 6061 ft 278 kts 91°
2026-05-08 02:49 13.55112 123.80488 5808 ft 280 kts 91°
2026-05-08 02:49 13.54954 123.83153 5362 ft 277 kts 91°
2026-05-08 02:49 13.54834 123.85186 5030 ft 273 kts 91°
2026-05-08 02:50 13.54719 123.87124 4741 ft 270 kts 91°
2026-05-08 02:50 13.54605 123.89036 4456 ft 267 kts 91°
2026-05-08 02:50 13.54491 123.90949 4123 ft 266 kts 91°
2026-05-08 02:50 13.54378 123.92857 3792 ft 264 kts 91°
2026-05-08 02:51 13.54264 123.94739 3481 ft 263 kts 91°
2026-05-08 02:51 13.54148 123.96656 3389 ft 265 kts 91°
2026-05-08 02:51 13.54038 123.98541 3355 ft 263 kts 92°
2026-05-08 02:51 13.53933 124.00307 3297 ft 257 kts 92°
2026-05-08 02:52 13.53817 124.02171 3227 ft 244 kts 91°
2026-05-08 02:52 13.53711 124.03875 3085 ft 235 kts 91°
2026-05-08 02:52 13.53614 124.05534 2952 ft 226 kts 92°
2026-05-08 02:52 13.53516 124.07095 2730 ft 215 kts 90°
2026-05-08 02:53 13.53428 124.08615 2398 ft 208 kts 91°
2026-05-08 02:53 13.53342 124.10061 2126 ft 197 kts 91°
2026-05-08 02:53 13.53263 124.11411 1927 ft 183 kts 92°
2026-05-08 02:53 13.53391 124.12642 1662 ft 169 kts 68°
2026-05-08 02:54 13.53910 124.13674 1448 ft 155 kts 60°
2026-05-08 02:54 13.54418 124.14576 1275 ft 138 kts 58°
2026-05-08 02:54 13.54741 124.15138 1106 ft 133 kts 58°
2026-05-08 02:54 13.55355 124.16219 857 ft 132 kts 61°
2026-05-08 02:55 13.55818 124.17042 709 ft 132 kts 62°
2026-05-08 02:55 13.56706 124.18684 378 ft 131 kts 60°
2026-05-08 02:55 13.57151 124.19495 248 ft 130 kts 60°
2026-05-08 02:56 13.57587 124.20293 162 ft 114 kts 61°
2026-05-08 02:56 13.57783 124.20642 162 ft 56 kts 61°
2026-05-08 02:56 13.57879 124.20817 162 ft 15 kts 60°
2026-05-08 02:56 13.57948 124.20942 162 ft 15 kts 60°
2026-05-08 02:57 13.57998 124.21033 162 ft 12 kts 60°
2026-05-08 02:57 13.58042 124.21113 162 ft 13 kts 60°
2026-05-08 02:57 13.58071 124.21165 162 ft 3 kts 60°
2026-05-08 02:57 13.58072 124.21193 162 ft 4 kts 113°
2026-05-08 02:58 13.58047 124.21214 162 ft 5 kts 149°
2026-05-08 02:58 13.58015 124.21218 162 ft 4 kts 210°
2026-05-08 02:58 13.58000 124.21195 162 ft 4 kts 242°
2026-05-08 02:58 13.57984 124.21172 162 ft 3 kts 211°
2026-05-08 02:59 13.57964 124.21171 162 ft 3 kts 174°
2026-05-08 02:59 13.57946 124.21172 162 ft 1 kts 177°
2026-05-08 02:59 13.57944 124.21172 162 ft 0 kts 177°